Location: OLV Amersfoort
(52.1552°N, 5.3872°E)
Time: 09:43:52
(UTC+02:00)

ISS - Visible Passes

Search period start: 27 May 2015 00:00
Search period end: 06 June 2015 00:00
Orbit: 399 x 404 km, 51.6° (Epoch: 27 May)

Date Brightness Start Highest point End Pass type
(mag) Time Alt. Az. Time Alt. Az. Time Alt. Az.
27 May -3.1 02:16:34 44° S 02:16:56 47° SSE 02:20:06 10° E visible
27 May -3.4 03:49:58 10° W 03:53:15 84° S 03:56:32 10° E visible
28 May -2.1 01:24:44 28° ESE 01:24:44 28° ESE 01:26:49 10° E visible
28 May -3.5 02:57:17 14° WSW 03:00:02 79° S 03:03:18 10° E visible
28 May -3.4 04:33:08 10° W 04:36:24 68° SSW 04:39:39 10° ESE visible
29 May -1.1 00:32:42 14° ESE 00:32:42 14° ESE 00:33:23 10° E visible
29 May -3.5 02:05:13 27° WSW 02:06:48 66° SSE 02:10:03 10° E visible
29 May -3.4 03:39:54 10° W 03:43:10 80° S 03:46:27 10° E visible
30 May -3.2 01:12:41 37° SSW 01:13:36 51° SSE 01:16:47 10° E visible
30 May -3.5 02:46:39 10° W 02:49:56 84° S 02:53:12 10° E visible
30 May -3.1 04:23:03 10° W 04:26:14 49° SSW 04:29:25 10° SE visible
31 May -2.8 00:17:38 11° SW 00:20:26 36° SSE 00:23:29 10° E visible
31 May -3.5 01:53:24 10° W 01:56:40 81° S 01:59:56 10° E visible
31 May -3.4 03:29:47 10° W 03:33:02 65° SSW 03:36:17 10° ESE visible
31 May -2.3 23:24:35 10° SSW 23:27:18 25° SSE 23:30:04 10° E visible
01 Jun -3.5 01:00:10 10° WSW 01:03:24 70° SSE 01:06:40 10° E visible
01 Jun -3.5 02:36:31 10° W 02:39:47 78° S 02:43:03 10° ESE visible
01 Jun -2.6 04:13:00 10° W 04:15:58 32° SSW 04:18:56 10° SE visible
02 Jun -3.3 00:06:59 10° WSW 00:10:10 55° SSE 00:13:22 10° E visible
02 Jun -3.5 01:43:14 10° W 01:46:30 84° S 01:49:47 10° E visible
02 Jun -3.1 03:19:38 10° W 03:22:48 45° SSW 03:25:56 10° SE visible
02 Jun -2.9 23:13:53 10° SW 23:16:57 39° SSE 23:20:02 10° E visible
03 Jun -3.5 00:49:57 10° W 00:53:12 82° S 00:56:29 10° E visible
03 Jun -3.4 02:26:20 10° W 02:29:33 61° SSW 02:32:47 10° ESE visible
03 Jun -2.0 04:03:06 10° W 04:05:35 20° SW 04:08:01 10° SSE visible
03 Jun -3.5 23:56:40 10° WSW 23:59:55 73° SSE 00:03:10 10° E visible
04 Jun -3.5 01:33:02 10° W 01:36:17 75° S 01:39:33 10° ESE visible
04 Jun -2.5 03:09:32 10° W 03:12:27 29° SSW 03:15:19 10° SSE visible
04 Jun -3.3 23:03:25 10° WSW 23:06:38 58° SSE 23:09:51 10° E visible
05 Jun -3.5 00:39:42 10° W 00:42:58 83° S 00:46:15 10° E visible
05 Jun -3.0 02:16:07 10° W 02:19:14 42° SSW 02:20:40 25° SSE visible
05 Jun -3.4 23:46:23 10° W 23:49:39 83° S 23:52:55 10° E visible
